Location: Munkebjergskolens Observatorium
(55.3864°N, 10.3987°E)
Time: 21:15:19
(UTC+01:00)

ESTCUBE 1 - Visible Passes

Search period start: 26 February 2024 00:00
Search period end: 07 March 2024 00:00
Orbit: 637 x 649 km, 97.8° (Epoch: 26 February)

Date Brightness Start Highest point End Pass type
(mag) Time Alt. Az. Time Alt. Az. Time Alt. Az.
26 Feb ? 19:28:24 11° NE 19:28:24 11° NE 19:29:24 10° NNE visible
26 Feb ? 21:06:02 26° N 21:06:02 26° N 21:08:12 10° N visible
26 Feb ? 22:43:41 15° NW 22:43:41 15° NW 22:44:35 10° NNW visible
27 Feb ? 19:52:56 15° NE 19:52:56 15° NE 19:54:56 10° NNE visible
27 Feb ? 21:30:34 27° N 21:30:34 27° N 21:32:41 10° NNW visible
27 Feb ? 23:08:12 11° NW 23:08:12 11° NW 23:08:27 10° NW visible
28 Feb ? 20:17:28 20° NE 20:17:28 20° NE 20:19:50 10° N visible
28 Feb ? 21:55:06 26° NNW 21:55:06 26° NNW 21:57:05 10° NNW visible
29 Feb ? 20:41:59 26° NNE 20:41:59 26° NNE 20:44:32 10° N visible
29 Feb ? 22:19:37 22° NW 22:19:37 22° NW 22:21:21 10° NNW visible
01 Mar ? 19:28:52 11° NE 19:29:09 11° NE 19:30:24 10° NNE visible
01 Mar ? 21:06:30 31° NNE 21:06:30 31° NNE 21:09:06 10° N visible
01 Mar ? 22:44:08 17° NW 22:44:08 17° NW 22:45:27 10° NNW visible
02 Mar ? 19:53:23 16° NE 19:53:23 16° NE 19:55:50 10° NNE visible
02 Mar ? 21:31:01 34° N 21:31:01 34° N 21:33:34 10° NNW visible
02 Mar ? 23:08:38 12° NW 23:08:38 12° NW 23:09:18 10° NW visible
03 Mar ? 20:17:53 22° NE 20:17:53 22° NE 20:20:42 10° N visible
03 Mar ? 21:55:31 31° NNW 21:55:31 31° NNW 21:57:56 10° NNW visible
04 Mar ? 20:42:22 29° NE 20:42:22 29° NE 20:45:23 10° N visible
04 Mar ? 22:20:01 25° NW 22:20:01 25° NW 22:22:10 10° NNW visible
05 Mar ? 19:29:14 11° NE 19:29:57 11° NE 19:31:16 10° NNE visible
05 Mar ? 21:06:52 37° NNE 21:06:52 37° NNE 21:09:55 10° N visible
05 Mar ? 22:44:30 19° NW 22:44:30 19° NW 22:46:14 10° NW visible
06 Mar ? 19:53:43 16° NE 19:53:56 16° NE 19:56:39 10° NNE visible
06 Mar ? 21:31:21 42° N 21:31:21 42° N 21:34:21 10° NNW visible
06 Mar ? 23:08:59 14° WNW 23:08:59 14° WNW 23:10:03 10° NW visible
